Flag for Germany Weather past 2 weeks in Neustadt am Rübenberge, Lower Saxony, Germany

Now
43 °F

Quite cool.


Feels Like: 39 °F
Forecast: 37 / 47 °F
Wind: 7 mph from West

Location: Wunstorf Airport

Current Time: Mar 6, 2015 at 12:12:44 AM

Latest Report: Mar 5, 2015 at 11:20 PM


Visibility: 6 mi

Pressure: 30.57 "Hg

Humidity: 71%

Dew point: 34 °F

Location of Neustadt am RübenbergeLocation

Historic Weather in Neustadt am Rübenberge — Graph

°F

Neustadt am Rübenberge temperature yesterday

Maximum temperature yesterday: 45 °F (at 12:20 PM)
Minimum temperature yesterday: 36 °F (at 5:20 AM)
Average temperature yesterday: 41 °F

Past Weeks' High & Low Weather Summary

 TemperatureHumidityPressure
High50 °F (Mar 1, 1:20 PM)100% (Feb 28, 5:20 AM)30.57 "Hg (Feb 28, 5:20 AM)
Low28 °F (Feb 19, 5:20 AM)43% (Feb 28, 4:20 PM)29.30 "Hg (Feb 21, 7:20 AM)
Average39 °F79%29.87 "Hg
* Reported Feb 18 10:20 PM — Mar 5 10:20 PM, Neustadt am Rübenberge, Weather by CustomWeather, © 2015

Note: Actual official high and low records may vary slightly from our data, if they occured in-between our weather recording intervals... More about our weather records

Advertising

Neustadt am Rübenberge weather history for previous 24 hours

 ConditionsComfort  
Time TempWeatherWind HumidityBarometerVisibility
10:20 PM
Thu, Mar 5
43 °FQuite cool.7 mph71%30.57 "Hg6 mi
9:20 PM41 °FQuite cool.7 mph81%30.57 "HgN/A
8:20 PM41 °FPassing clouds.5 mph81%30.57 "HgN/A
7:20 PM43 °FPassing clouds.7 mph76%30.57 "HgN/A
6:20 PM43 °FPartly cloudy.5 mph81%30.57 "HgN/A
5:20 PM45 °FBroken clouds.7 mph71%30.57 "HgN/A
4:20 PM45 °FBroken clouds.8 mph71%30.57 "HgN/A
3:20 PM45 °FBroken clouds.10 mph66%30.57 "HgN/A
2:20 PM45 °FBroken clouds.12 mph66%30.57 "HgN/A
1:20 PM45 °FBroken clouds.13 mph71%30.57 "HgN/A
12:20 PM45 °FBroken clouds.13 mph76%30.57 "HgN/A
11:20 AM41 °FBroken clouds.12 mph87%30.57 "Hg5 mi
10:20 AM39 °FBroken clouds.10 mph87%30.57 "Hg4 mi
9:58 AM39 °FBroken clouds.10 mph87%30.57 "Hg4 mi
9:20 AM39 °FMore clouds than sun.12 mph87%30.57 "Hg4 mi
8:20 AM37 °FFog.12 mph93%30.54 "Hg3 mi
7:20 AM37 °FFog.12 mph93%30.54 "Hg3 mi
6:20 AM37 °FPassing clouds.13 mph93%30.51 "HgN/A
5:20 AM36 °FPassing clouds.13 mph93%30.51 "HgN/A
4:20 AM37 °FChilly.10 mph87%30.48 "Hg4 mi
2:20 AM37 °FChilly.12 mph87%30.42 "Hg4 mi
1:20 AM39 °FChilly.15 mph81%30.39 "Hg5 mi
12:20 AM39 °FChilly.16 mph81%30.36 "Hg5 mi
Weather by CustomWeather, © 2015

See weather overviewHow to use our weather pages